Wetterdaten: Freitag, 05.02.2016
Datum Zeit Temp. A. Feuchte A. Luftdruck Regen Wind Richtung Richtung Sonnenschein ET UV Solar Taupunkt Windchill Windben Empfang
05.02.2016 00:00 2,4 C 94 % 1021,2 hPa 0,0 l/m 14,1 km/h (3 Bft) W-SW 257 0 min 0,000 mm 0,0 UV-I 0 W/m 1,5 C -3,6 C 24,1 km/h (4 Bft) 97,25 %
05.02.2016 00:05 2,4 C 94 % 1021,3 hPa 0,0 l/m 9,8 km/h (2 Bft) W-SW 240 0 min 0,000 mm 0,0 UV-I 0 W/m 1,5 C -0,6 C 19,3 km/h (3 Bft) 98,11 %
05.02.2016 00:10 2,4 C 94 % 1021,4 hPa 0,0 l/m 13,7 km/h (3 Bft) W 272 0 min 0,000 mm 0,0 UV-I 0 W/m 1,5 C -3,3 C 25,7 km/h (4 Bft) 97,56 %
05.02.2016 00:15 2,4 C 94 % 1021,5 hPa 0,0 l/m 15,8 km/h (3 Bft) W 261 0 min 0,000 mm 0,0 UV-I 0 W/m 1,5 C -4,5 C 25,7 km/h (4 Bft) 100,00 %
05.02.2016 00:20 2,3 C 94 % 1021,5 hPa 0,2 l/m 14,0 km/h (3 Bft) W-SW 246 0 min 0,000 mm 0,0 UV-I 0 W/m 1,4 C -3,6 C 24,1 km/h (4 Bft) 98,21 %
05.02.2016 00:25 2,3 C 94 % 1021,6 hPa 0,0 l/m 16,5 km/h (3 Bft) W 271 0 min 0,000 mm 0,0 UV-I 0 W/m 1,4 C -5,0 C 24,1 km/h (4 Bft) 100,00 %
05.02.2016 00:30 2,3 C 94 % 1021,6 hPa 0,0 l/m 12,7 km/h (3 Bft) W 280 0 min 0,000 mm 0,0 UV-I 0 W/m 1,4 C -2,8 C 24,1 km/h (4 Bft) 97,46 %
05.02.2016 00:35 2,2 C 94 % 1021,7 hPa 0,0 l/m 13,6 km/h (3 Bft) W 271 0 min 0,000 mm 0,0 UV-I 0 W/m 1,3 C -3,5 C 25,7 km/h (4 Bft) 96,30 %
05.02.2016 00:40 2,2 C 94 % 1021,7 hPa 0,0 l/m 12,8 km/h (3 Bft) W-SW 248 0 min 0,000 mm 0,0 UV-I 0 W/m 1,3 C -3,0 C 20,9 km/h (4 Bft) 98,31 %
05.02.2016 00:45 2,2 C 94 % 1021,7 hPa 0,0 l/m 13,8 km/h (3 Bft) W 269 0 min 0,000 mm 0,0 UV-I 0 W/m 1,3 C -3,6 C 24,1 km/h (4 Bft) 99,19 %
05.02.2016 00:50 2,1 C 94 % 1021,7 hPa 0,0 l/m 11,0 km/h (2 Bft) W-SW 252 0 min 0,000 mm 0,0 UV-I 0 W/m 1,2 C -1,9 C 20,9 km/h (4 Bft) 99,15 %
05.02.2016 00:55 2,1 C 94 % 1021,7 hPa 0,0 l/m 11,0 km/h (2 Bft) W-NW 287 0 min 0,000 mm 0,0 UV-I 0 W/m 1,2 C -1,9 C 17,7 km/h (3 Bft) 100,00 %
05.02.2016 01:00 2,1 C 94 % 1021,9 hPa 0,0 l/m 8,0 km/h (2 Bft) W-SW 258 0 min 0,000 mm 0,0 UV-I 0 W/m 1,2 C 0,6 C 17,7 km/h (3 Bft) 100,00 %
05.02.2016 01:05 2,1 C 94 % 1021,9 hPa 0,0 l/m 9,7 km/h (2 Bft) W-SW 252 0 min 0,000 mm 0,0 UV-I 0 W/m 1,2 C -0,9 C 16,1 km/h (3 Bft) 100,00 %
05.02.2016 01:10 2,1 C 94 % 1021,8 hPa 0,0 l/m 15,3 km/h (3 Bft) W-SW 248 0 min 0,000 mm 0,0 UV-I 0 W/m 1,2 C -4,6 C 24,1 km/h (4 Bft) 99,15 %
05.02.2016 01:15 2,1 C 94 % 1021,9 hPa 0,0 l/m 12,6 km/h (3 Bft) SW 234 0 min 0,000 mm 0,0 UV-I 0 W/m 1,2 C -3,0 C 20,9 km/h (4 Bft) 99,15 %
05.02.2016 01:20 2,1 C 94 % 1022,0 hPa 0,0 l/m 13,3 km/h (3 Bft) W-SW 250 0 min 0,000 mm 0,0 UV-I 0 W/m 1,2 C -3,4 C 22,5 km/h (4 Bft) 99,17 %
05.02.2016 01:25 2,1 C 94 % 1022,0 hPa 0,0 l/m 14,5 km/h (3 Bft) W 267 0 min 0,000 mm 0,0 UV-I 0 W/m 1,2 C -4,2 C 22,5 km/h (4 Bft) 98,26 %
05.02.2016 01:30 2,1 C 94 % 1022,1 hPa 0,0 l/m 13,0 km/h (3 Bft) W-SW 249 0 min 0,000 mm 0,0 UV-I 0 W/m 1,2 C -3,2 C 20,9 km/h (4 Bft) 100,00 %
05.02.2016 01:35 2,1 C 93 % 1022,2 hPa 0,0 l/m 12,8 km/h (3 Bft) W 279 0 min 0,000 mm 0,0 UV-I 0 W/m 1,1 C -3,1 C 19,3 km/h (3 Bft) 99,06 %
05.02.2016 01:40 2,1 C 93 % 1022,4 hPa 0,0 l/m 8,4 km/h (2 Bft) W 267 0 min 0,000 mm 0,0 UV-I 0 W/m 1,1 C 0,2 C 19,3 km/h (3 Bft) 99,21 %
05.02.2016 01:45 2,1 C 93 % 1022,5 hPa 0,0 l/m 6,3 km/h (2 Bft) W 271 0 min 0,000 mm 0,0 UV-I 0 W/m 1,1 C 2,1 C 16,1 km/h (3 Bft) 97,46 %
05.02.2016 01:50 2,1 C 93 % 1022,6 hPa 0,0 l/m 5,7 km/h (1 Bft) W-SW 250 0 min 0,000 mm 0,0 UV-I 0 W/m 1,1 C 2,1 C 12,9 km/h (3 Bft) 97,39 %
05.02.2016 01:55 2,2 C 93 % 1022,8 hPa 0,0 l/m 3,3 km/h (1 Bft) W-SW 237 0 min 0,000 mm 0,0 UV-I 0 W/m 1,2 C 2,2 C 14,5 km/h (3 Bft) 97,25 %
05.02.2016 02:00 2,2 C 93 % 1023,0 hPa 0,0 l/m 4,3 km/h (1 Bft) W-NW 298 0 min 0,000 mm 0,0 UV-I 0 W/m 1,2 C 2,2 C 9,7 km/h (2 Bft) 96,67 %
05.02.2016 02:05 2,2 C 92 % 1023,1 hPa 0,0 l/m 3,1 km/h (1 Bft) W-SW 240 0 min 0,000 mm 0,0 UV-I 0 W/m 1,0 C 2,2 C 6,4 km/h (2 Bft) 98,26 %
05.02.2016 02:10 2,2 C 93 % 1023,4 hPa 0,0 l/m 0,3 km/h (0 Bft) W-SW 240 0 min 0,000 mm 0,0 UV-I 0 W/m 1,2 C 2,2 C 1,6 km/h (1 Bft) 97,62 %
05.02.2016 02:15 2,2 C 93 % 1023,4 hPa 0,0 l/m 0,8 km/h (0 Bft) W-NW 295 0 min 0,000 mm 0,0 UV-I 0 W/m 1,2 C 2,2 C 3,2 km/h (1 Bft) 95,76 %
05.02.2016 02:20 2,2 C 92 % 1023,5 hPa 0,0 l/m 3,4 km/h (1 Bft) W 271 0 min 0,000 mm 0,0 UV-I 0 W/m 1,0 C 2,2 C 11,3 km/h (2 Bft) 98,31 %
05.02.2016 02:25 2,2 C 92 % 1023,6 hPa 0,0 l/m 2,1 km/h (1 Bft) W 271 0 min 0,000 mm 0,0 UV-I 0 W/m 1,0 C 2,2 C 6,4 km/h (2 Bft) 97,44 %
05.02.2016 02:30 2,2 C 92 % 1023,7 hPa 0,0 l/m 2,3 km/h (1 Bft) W 265 0 min 0,000 mm 0,0 UV-I 0 W/m 1,0 C 2,2 C 4,8 km/h (1 Bft) 97,25 %
05.02.2016 02:35 2,2 C 93 % 1023,7 hPa 0,0 l/m 1,7 km/h (1 Bft) S-SW 206 0 min 0,000 mm 0,0 UV-I 0 W/m 1,2 C 2,2 C 4,8 km/h (1 Bft) 100,00 %
05.02.2016 02:40 2,2 C 93 % 1023,8 hPa 0,0 l/m 3,1 km/h (1 Bft) W-NW 302 0 min 0,000 mm 0,0 UV-I 0 W/m 1,2 C 2,2 C 11,3 km/h (2 Bft) 99,08 %
05.02.2016 02:45 2,2 C 93 % 1023,8 hPa 0,0 l/m 2,1 km/h (1 Bft) NW 316 0 min 0,000 mm 0,0 UV-I 0 W/m 1,2 C 2,2 C 4,8 km/h (1 Bft) 98,43 %
05.02.2016 02:50 2,1 C 93 % 1023,9 hPa 0,0 l/m 4,7 km/h (1 Bft) NW 306 0 min 0,000 mm 0,0 UV-I 0 W/m 1,1 C 2,1 C 9,7 km/h (2 Bft) 100,00 %
05.02.2016 02:55 2,1 C 93 % 1024,0 hPa 0,0 l/m 1,7 km/h (1 Bft) W 278 0 min 0,000 mm 0,0 UV-I 0 W/m 1,1 C 2,1 C 4,8 km/h (1 Bft) 99,08 %
05.02.2016 03:00 2,1 C 93 % 1024,0 hPa 0,0 l/m 4,3 km/h (1 Bft) NW 319 0 min 0,000 mm 0,0 UV-I 0 W/m 1,1 C 2,1 C 6,4 km/h (2 Bft) 99,17 %
05.02.2016 03:05 2,0 C 93 % 1024,1 hPa 0,0 l/m 4,1 km/h (1 Bft) W-NW 286 0 min 0,000 mm 0,0 UV-I 0 W/m 1,0 C 2,0 C 14,5 km/h (3 Bft) 100,00 %
05.02.2016 03:10 2,0 C 93 % 1024,2 hPa 0,0 l/m 5,6 km/h (1 Bft) W-SW 250 0 min 0,000 mm 0,0 UV-I 0 W/m 1,0 C 2,0 C 14,5 km/h (3 Bft) 99,13 %
05.02.2016 03:15 2,0 C 93 % 1024,3 hPa 0,0 l/m 6,4 km/h (2 Bft) W-NW 295 0 min 0,000 mm 0,0 UV-I 0 W/m 1,0 C 2,0 C 16,1 km/h (3 Bft) 99,17 %
05.02.2016 03:20 1,9 C 93 % 1024,4 hPa 0,0 l/m 5,0 km/h (1 Bft) W-NW 301 0 min 0,000 mm 0,0 UV-I 0 W/m 0,9 C 1,9 C 11,3 km/h (2 Bft) 99,17 %
05.02.2016 03:25 1,9 C 93 % 1024,5 hPa 0,0 l/m 5,5 km/h (1 Bft) W-SW 255 0 min 0,000 mm 0,0 UV-I 0 W/m 0,9 C 1,9 C 17,7 km/h (3 Bft) 100,00 %
05.02.2016 03:30 1,9 C 93 % 1024,5 hPa 0,0 l/m 8,4 km/h (2 Bft) W-SW 258 0 min 0,000 mm 0,0 UV-I 0 W/m 0,9 C -0,0 C 19,3 km/h (3 Bft) 100,00 %
05.02.2016 03:35 1,9 C 93 % 1024,6 hPa 0,0 l/m 12,6 km/h (3 Bft) W 261 0 min 0,000 mm 0,0 UV-I 0 W/m 0,9 C -3,2 C 20,9 km/h (4 Bft) 100,00 %
05.02.2016 03:40 1,9 C 92 % 1024,7 hPa 0,0 l/m 13,6 km/h (3 Bft) W-SW 238 0 min 0,000 mm 0,0 UV-I 0 W/m 0,7 C -3,9 C 24,1 km/h (4 Bft) 100,00 %
05.02.2016 03:45 1,9 C 92 % 1024,7 hPa 0,0 l/m 13,2 km/h (3 Bft) W 269 0 min 0,000 mm 0,0 UV-I 0 W/m 0,7 C -3,6 C 22,5 km/h (4 Bft) 97,30 %
05.02.2016 03:50 1,9 C 92 % 1024,9 hPa 0,0 l/m 11,6 km/h (2 Bft) W-SW 256 0 min 0,000 mm 0,0 UV-I 0 W/m 0,7 C -2,5 C 19,3 km/h (3 Bft) 97,69 %
05.02.2016 03:55 1,9 C 92 % 1024,9 hPa 0,0 l/m 10,6 km/h (2 Bft) W-SW 246 0 min 0,000 mm 0,0 UV-I 0 W/m 0,7 C -1,8 C 16,1 km/h (3 Bft) 97,44 %
05.02.2016 04:00 1,9 C 92 % 1024,8 hPa 0,0 l/m 12,5 km/h (3 Bft) W 275 0 min 0,000 mm 0,0 UV-I 0 W/m 0,7 C -3,1 C 19,3 km/h (3 Bft) 97,46 %
05.02.2016 04:05 1,9 C 92 % 1024,8 hPa 0,0 l/m 12,4 km/h (3 Bft) W-SW 239 0 min 0,000 mm 0,0 UV-I 0 W/m 0,7 C -3,1 C 19,3 km/h (3 Bft) 95,41 %
05.02.2016 04:10 1,8 C 92 % 1025,0 hPa 0,0 l/m 13,9 km/h (3 Bft) W-SW 243 0 min 0,000 mm 0,0 UV-I 0 W/m 0,6 C -4,2 C 22,5 km/h (4 Bft) 98,20 %
05.02.2016 04:15 1,8 C 92 % 1024,9 hPa 0,0 l/m 13,5 km/h (3 Bft) W 267 0 min 0,000 mm 0,0 UV-I 0 W/m 0,6 C -3,9 C 22,5 km/h (4 Bft) 94,35 %
05.02.2016 04:20 1,8 C 92 % 1025,0 hPa 0,0 l/m 15,3 km/h (3 Bft) W-SW 253 0 min 0,000 mm 0,0 UV-I 0 W/m 0,6 C -5,0 C 24,1 km/h (4 Bft) 94,87 %
05.02.2016 04:25 1,8 C 92 % 1025,1 hPa 0,0 l/m 15,1 km/h (3 Bft) W-SW 257 0 min 0,000 mm 0,0 UV-I 0 W/m 0,6 C -4,9 C 24,1 km/h (4 Bft) 100,00 %
05.02.2016 04:30 1,9 C 92 % 1025,2 hPa 0,0 l/m 15,2 km/h (3 Bft) SW 234 0 min 0,000 mm 0,0 UV-I 0 W/m 0,7 C -4,8 C 22,5 km/h (4 Bft) 99,15 %
05.02.2016 04:35 1,9 C 92 % 1025,3 hPa 0,0 l/m 16,2 km/h (3 Bft) SW 226 0 min 0,000 mm 0,0 UV-I 0 W/m 0,7 C -5,3 C 25,7 km/h (4 Bft) 100,00 %
05.02.2016 04:40 1,9 C 92 % 1025,4 hPa 0,0 l/m 14,4 km/h (3 Bft) SW 225 0 min 0,000 mm 0,0 UV-I 0 W/m 0,7 C -4,3 C 24,1 km/h (4 Bft) 99,19 %
05.02.2016 04:45 1,8 C 92 % 1025,4 hPa 0,0 l/m 15,5 km/h (3 Bft) SW 225 0 min 0,000 mm 0,0 UV-I 0 W/m 0,6 C -5,1 C 25,7 km/h (4 Bft) 100,00 %
05.02.2016 04:50 1,8 C 92 % 1025,5 hPa 0,0 l/m 14,0 km/h (3 Bft) W-SW 255 0 min 0,000 mm 0,0 UV-I 0 W/m 0,6 C -4,2 C 20,9 km/h (4 Bft) 98,21 %
05.02.2016 04:55 1,8 C 92 % 1025,5 hPa 0,0 l/m 14,7 km/h (3 Bft) W-SW 247 0 min 0,000 mm 0,0 UV-I 0 W/m 0,6 C -4,6 C 22,5 km/h (4 Bft) 99,28 %
05.02.2016 05:00 1,9 C 92 % 1025,5 hPa 0,0 l/m 12,2 km/h (2 Bft) W-SW 254 0 min 0,000 mm 0,0 UV-I 0 W/m 0,7 C -2,9 C 17,7 km/h (3 Bft) 99,11 %
05.02.2016 05:05 1,9 C 92 % 1025,7 hPa 0,0 l/m 15,2 km/h (3 Bft) W-SW 257 0 min 0,000 mm 0,0 UV-I 0 W/m 0,7 C -4,8 C 22,5 km/h (4 Bft) 100,00 %
05.02.2016 05:10 1,9 C 92 % 1025,8 hPa 0,0 l/m 13,6 km/h (3 Bft) W-SW 248 0 min 0,000 mm 0,0 UV-I 0 W/m 0,7 C -3,9 C 19,3 km/h (3 Bft) 99,08 %
05.02.2016 05:15 1,9 C 91 % 1026,0 hPa 0,0 l/m 10,7 km/h (2 Bft) W-SW 258 0 min 0,000 mm 0,0 UV-I 0 W/m 0,6 C -1,9 C 16,1 km/h (3 Bft) 96,69 %
05.02.2016 05:20 1,9 C 91 % 1026,0 hPa 0,0 l/m 9,7 km/h (2 Bft) SW 228 0 min 0,000 mm 0,0 UV-I 0 W/m 0,6 C -1,1 C 17,7 km/h (3 Bft) 100,00 %
05.02.2016 05:25 1,9 C 91 % 1026,1 hPa 0,0 l/m 11,2 km/h (2 Bft) W-SW 257 0 min 0,000 mm 0,0 UV-I 0 W/m 0,6 C -2,3 C 19,3 km/h (3 Bft) 100,00 %
05.02.2016 05:30 1,9 C 91 % 1026,1 hPa 0,0 l/m 8,8 km/h (2 Bft) W-SW 238 0 min 0,000 mm 0,0 UV-I 0 W/m 0,6 C -0,4 C 16,1 km/h (3 Bft) 99,19 %
05.02.2016 05:35 1,9 C 91 % 1026,2 hPa 0,0 l/m 10,4 km/h (2 Bft) W-SW 254 0 min 0,000 mm 0,0 UV-I 0 W/m 0,6 C -1,7 C 17,7 km/h (3 Bft) 100,00 %
05.02.2016 05:40 1,9 C 91 % 1026,4 hPa 0,0 l/m 8,8 km/h (2 Bft) W-SW 244 0 min 0,000 mm 0,0 UV-I 0 W/m 0,6 C -0,4 C 17,7 km/h (3 Bft) 100,00 %
05.02.2016 05:45 1,9 C 90 % 1026,5 hPa 0,0 l/m 8,4 km/h (2 Bft) W-SW 258 0 min 0,000 mm 0,0 UV-I 0 W/m 0,4 C -0,0 C 14,5 km/h (3 Bft) 100,00 %
05.02.2016 05:50 1,9 C 90 % 1026,5 hPa 0,0 l/m 7,4 km/h (2 Bft) W 273 0 min 0,000 mm 0,0 UV-I 0 W/m 0,4 C 0,9 C 12,9 km/h (3 Bft) 98,11 %
05.02.2016 05:55 1,9 C 91 % 1026,5 hPa 0,0 l/m 6,8 km/h (2 Bft) W-SW 250 0 min 0,000 mm 0,0 UV-I 0 W/m 0,6 C 1,5 C 12,9 km/h (3 Bft) 96,03 %
05.02.2016 06:00 1,8 C 91 % 1026,6 hPa 0,0 l/m 10,3 km/h (2 Bft) W 274 0 min 0,000 mm 0,0 UV-I 0 W/m 0,5 C -1,7 C 16,1 km/h (3 Bft) 97,46 %
05.02.2016 06:05 1,8 C 91 % 1026,7 hPa 0,0 l/m 10,5 km/h (2 Bft) S-SW 209 0 min 0,000 mm 0,0 UV-I 0 W/m 0,5 C -1,8 C 17,7 km/h (3 Bft) 98,17 %
05.02.2016 06:10 1,8 C 91 % 1026,8 hPa 0,0 l/m 10,3 km/h (2 Bft) W-SW 253 0 min 0,000 mm 0,0 UV-I 0 W/m 0,5 C -1,7 C 16,1 km/h (3 Bft) 96,67 %
05.02.2016 06:15 1,9 C 91 % 1027,0 hPa 0,0 l/m 10,4 km/h (2 Bft) W-SW 241 0 min 0,000 mm 0,0 UV-I 0 W/m 0,6 C -1,7 C 17,7 km/h (3 Bft) 97,25 %
05.02.2016 06:20 1,9 C 90 % 1027,1 hPa 0,0 l/m 11,6 km/h (2 Bft) W 271 0 min 0,000 mm 0,0 UV-I 0 W/m 0,4 C -2,5 C 17,7 km/h (3 Bft) 97,52 %
05.02.2016 06:25 1,9 C 90 % 1027,1 hPa 0,0 l/m 12,0 km/h (2 Bft) W 276 0 min 0,000 mm 0,0 UV-I 0 W/m 0,4 C -2,8 C 17,7 km/h (3 Bft) 95,83 %
05.02.2016 06:30 1,9 C 90 % 1027,2 hPa 0,0 l/m 13,0 km/h (3 Bft) W 268 0 min 0,000 mm 0,0 UV-I 0 W/m 0,4 C -3,5 C 19,3 km/h (3 Bft) 98,31 %
05.02.2016 06:35 1,9 C 90 % 1027,4 hPa 0,0 l/m 13,4 km/h (3 Bft) W-SW 246 0 min 0,000 mm 0,0 UV-I 0 W/m 0,4 C -3,7 C 20,9 km/h (4 Bft) 99,11 %
05.02.2016 06:40 2,0 C 90 % 1027,4 hPa 0,0 l/m 13,2 km/h (3 Bft) W-SW 255 0 min 0,000 mm 0,0 UV-I 0 W/m 0,5 C -3,5 C 22,5 km/h (4 Bft) 98,33 %
05.02.2016 06:45 2,0 C 90 % 1027,6 hPa 0,0 l/m 13,2 km/h (3 Bft) W-SW 250 0 min 0,000 mm 0,0 UV-I 0 W/m 0,5 C -3,5 C 20,9 km/h (4 Bft) 99,13 %
05.02.2016 06:50 2,0 C 90 % 1027,7 hPa 0,0 l/m 11,0 km/h (2 Bft) W 264 0 min 0,000 mm 0,0 UV-I 0 W/m 0,5 C -2,0 C 17,7 km/h (3 Bft) 100,00 %
05.02.2016 06:55 2,0 C 90 % 1027,8 hPa 0,0 l/m 10,6 km/h (2 Bft) W-SW 253 0 min 0,000 mm 0,0 UV-I 0 W/m 0,5 C -1,7 C 17,7 km/h (3 Bft) 100,00 %
05.02.2016 07:00 2,0 C 90 % 1027,9 hPa 0,0 l/m 9,4 km/h (2 Bft) W 259 0 min 0,000 mm 0,0 UV-I 0 W/m 0,5 C -0,8 C 16,1 km/h (3 Bft) 100,00 %
05.02.2016 07:05 2,0 C 90 % 1028,0 hPa 0,0 l/m 9,9 km/h (2 Bft) W-NW 288 0 min 0,000 mm 0,0 UV-I 0 W/m 0,5 C -1,2 C 16,1 km/h (3 Bft) 95,50 %
05.02.2016 07:10 2,0 C 90 % 1028,1 hPa 0,0 l/m 9,4 km/h (2 Bft) W 259 0 min 0,000 mm 0,0 UV-I 0 W/m 0,5 C -0,8 C 14,5 km/h (3 Bft) 98,39 %
05.02.2016 07:15 1,9 C 90 % 1028,2 hPa 0,0 l/m 7,4 km/h (2 Bft) W 259 0 min 0,000 mm 0,0 UV-I 0 W/m 0,4 C 0,9 C 12,9 km/h (3 Bft) 100,00 %
05.02.2016 07:20 1,9 C 90 % 1028,2 hPa 0,0 l/m 8,6 km/h (2 Bft) W-SW 254 0 min 0,000 mm 0,0 UV-I 0 W/m 0,4 C -0,2 C 14,5 km/h (3 Bft) 98,21 %
05.02.2016 07:25 1,9 C 89 % 1028,3 hPa 0,0 l/m 8,8 km/h (2 Bft) W-SW 252 0 min 0,000 mm 0,0 UV-I 0 W/m 0,3 C -0,4 C 14,5 km/h (3 Bft) 99,15 %
05.02.2016 07:30 1,9 C 89 % 1028,4 hPa 0,0 l/m 10,2 km/h (2 Bft) W-SW 243 0 min 0,000 mm 0,0 UV-I 0 W/m 0,3 C -1,5 C 17,7 km/h (3 Bft) 100,00 %
05.02.2016 07:35 2,0 C 89 % 1028,4 hPa 0,0 l/m 9,6 km/h (2 Bft) W-SW 258 0 min 0,000 mm 0,0 UV-I 0 W/m 0,4 C -0,9 C 17,7 km/h (3 Bft) 98,26 %
05.02.2016 07:40 2,0 C 89 % 1028,4 hPa 0,0 l/m 9,1 km/h (2 Bft) W-NW 284 0 min 0,000 mm 0,0 UV-I 3 W/m 0,4 C -0,5 C 16,1 km/h (3 Bft) 100,00 %
05.02.2016 07:45 2,0 C 88 % 1028,6 hPa 0,0 l/m 7,8 km/h (2 Bft) W-SW 246 0 min 0,000 mm 0,0 UV-I 6 W/m 0,2 C 0,6 C 14,5 km/h (3 Bft) 100,00 %
05.02.2016 07:50 2,1 C 88 % 1028,8 hPa 0,0 l/m 9,0 km/h (2 Bft) W-SW 252 0 min 0,000 mm 0,0 UV-I 9 W/m 0,3 C -0,3 C 16,1 km/h (3 Bft) 100,00 %
05.02.2016 07:55 2,0 C 88 % 1028,8 hPa 0,0 l/m 6,3 km/h (2 Bft) W 279 0 min 0,000 mm 0,0 UV-I 12 W/m 0,2 C 2,0 C 11,3 km/h (2 Bft) 99,15 %
05.02.2016 08:00 2,0 C 88 % 1028,9 hPa 0,0 l/m 7,8 km/h (2 Bft) W-SW 246 0 min 0,000 mm 0,0 UV-I 12 W/m 0,2 C 0,6 C 14,5 km/h (3 Bft) 99,11 %
05.02.2016 08:05 2,0 C 88 % 1028,8 hPa 0,0 l/m 7,0 km/h (2 Bft) W-SW 249 0 min 0,000 mm 0,0 UV-I 13 W/m 0,2 C 1,4 C 12,9 km/h (3 Bft) 98,26 %
05.02.2016 08:10 2,0 C 88 % 1028,9 hPa 0,0 l/m 7,4 km/h (2 Bft) W 274 0 min 0,000 mm 0,0 UV-I 17 W/m 0,2 C 1,0 C 16,1 km/h (3 Bft) 97,44 %
05.02.2016 08:15 2,0 C 88 % 1028,9 hPa 0,0 l/m 8,4 km/h (2 Bft) W-SW 240 0 min 0,000 mm 0,0 UV-I 20 W/m 0,2 C 0,1 C 16,1 km/h (3 Bft) 96,61 %
05.02.2016 08:20 2,1 C 88 % 1028,9 hPa 0,0 l/m 9,1 km/h (2 Bft) W 262 0 min 0,000 mm 0,0 UV-I 23 W/m 0,3 C -0,4 C 17,7 km/h (3 Bft) 97,46 %
05.02.2016 08:25 2,1 C 87 % 1028,9 hPa 0,0 l/m 8,6 km/h (2 Bft) W 261 0 min 0,000 mm 0,0 UV-I 28 W/m 0,2 C 0,0 C 12,9 km/h (3 Bft) 96,75 %
05.02.2016 08:30 2,1 C 88 % 1029,0 hPa 0,0 l/m 7,7 km/h (2 Bft) W-NW 290 0 min 0,000 mm 0,0 UV-I 37 W/m 0,3 C 0,8 C 14,5 km/h (3 Bft) 98,31 %
05.02.2016 08:35 2,1 C 87 % 1029,1 hPa 0,0 l/m 8,3 km/h (2 Bft) W 272 0 min 0,000 mm 0,0 UV-I 43 W/m 0,2 C 0,3 C 16,1 km/h (3 Bft) 96,58 %
05.02.2016 08:40 2,2 C 88 % 1029,1 hPa 0,0 l/m 8,9 km/h (2 Bft) W 272 0 min 0,000 mm 0,0 UV-I 51 W/m 0,4 C -0,1 C 14,5 km/h (3 Bft) 98,26 %
05.02.2016 08:45 2,2 C 88 % 1029,1 hPa 0,0 l/m 8,5 km/h (2 Bft) W-SW 255 0 min 0,000 mm 0,0 UV-I 62 W/m 0,4 C 0,2 C 14,5 km/h (3 Bft) 98,21 %
05.02.2016 08:50 2,2 C 87 % 1029,1 hPa 0,0 l/m 8,0 km/h (2 Bft) W-SW 254 0 min 0,000 mm 0,0 UV-I 72 W/m 0,3 C 0,7 C 14,5 km/h (3 Bft) 97,37 %
05.02.2016 08:55 2,2 C 87 % 1029,2 hPa 0,0 l/m 7,2 km/h (2 Bft) W 264 0 min 0,000 mm 0,0 UV-I 79 W/m 0,3 C 1,4 C 14,5 km/h (3 Bft) 98,11 %
05.02.2016 09:00 2,2 C 87 % 1029,3 hPa 0,0 l/m 8,9 km/h (2 Bft) W 263 0 min 0,025 mm 0,0 UV-I 70 W/m 0,3 C -0,1 C 12,9 km/h (3 Bft) 100,00 %
05.02.2016 09:05 2,2 C 88 % 1029,4 hPa 0,0 l/m 6,1 km/h (2 Bft) W 261 0 min 0,000 mm 0,0 UV-I 81 W/m 0,4 C 2,2 C 12,9 km/h (3 Bft) 100,00 %
05.02.2016 09:10 2,3 C 88 % 1029,3 hPa 0,0 l/m 5,6 km/h (1 Bft) W-SW 257 0 min 0,000 mm 0,0 UV-I 100 W/m 0,5 C 2,3 C 11,3 km/h (2 Bft) 98,35 %
05.02.2016 09:15 2,4 C 87 % 1029,4 hPa 0,0 l/m 6,6 km/h (2 Bft) W-SW 239 0 min 0,000 mm 0,0 UV-I 119 W/m 0,5 C 2,2 C 11,3 km/h (2 Bft) 99,08 %
05.02.2016 09:20 2,7 C 87 % 1029,4 hPa 0,0 l/m 7,9 km/h (2 Bft) W-SW 240 5 min 0,000 mm 0,0 UV-I 163 W/m 0,8 C 1,3 C 14,5 km/h (3 Bft) 100,00 %
05.02.2016 09:25 2,6 C 87 % 1029,5 hPa 0,0 l/m 7,3 km/h (2 Bft) W-SW 255 5 min 0,000 mm 0,0 UV-I 159 W/m 0,7 C 1,7 C 14,5 km/h (3 Bft) 100,00 %
05.02.2016 09:30 2,8 C 88 % 1029,5 hPa 0,0 l/m 9,6 km/h (2 Bft) SW 231 5 min 0,000 mm 0,0 UV-I 165 W/m 1,0 C -0,0 C 19,3 km/h (3 Bft) 99,07 %
05.02.2016 09:35 2,9 C 88 % 1029,5 hPa 0,0 l/m 11,4 km/h (2 Bft) W-SW 251 5 min 0,000 mm 0,1 UV-I 216 W/m 1,1 C -1,3 C 19,3 km/h (3 Bft) 100,00 %
05.02.2016 09:40 2,9 C 87 % 1029,5 hPa 0,0 l/m 9,6 km/h (2 Bft) W 261 5 min 0,000 mm 0,1 UV-I 165 W/m 1,0 C 0,1 C 16,1 km/h (3 Bft) 97,52 %
05.02.2016 09:45 2,9 C 87 % 1029,5 hPa 0,0 l/m 8,2 km/h (2 Bft) W 273 5 min 0,000 mm 0,5 UV-I 196 W/m 1,0 C 1,2 C 14,5 km/h (3 Bft) 98,25 %
05.02.2016 09:50 3,1 C 87 % 1029,5 hPa 0,0 l/m 9,5 km/h (2 Bft) SW 231 5 min 0,000 mm 0,6 UV-I 307 W/m 1,2 C 0,4 C 19,3 km/h (3 Bft) 99,13 %
05.02.2016 09:55 3,2 C 85 % 1029,4 hPa 0,0 l/m 8,8 km/h (2 Bft) SW 224 5 min 0,000 mm 0,6 UV-I 296 W/m 0,9 C 1,0 C 17,7 km/h (3 Bft) 97,56 %
05.02.2016 10:00 3,5 C 85 % 1029,5 hPa 0,0 l/m 10,8 km/h (2 Bft) SW 221 5 min 0,077 mm 0,6 UV-I 368 W/m 1,2 C -0,2 C 19,3 km/h (3 Bft) 98,31 %
05.02.2016 10:05 3,4 C 84 % 1029,5 hPa 0,0 l/m 10,2 km/h (2 Bft) W-SW 246 5 min 0,000 mm 0,2 UV-I 216 W/m 1,0 C 0,2 C 19,3 km/h (3 Bft) 96,33 %
05.02.2016 10:10 3,3 C 85 % 1029,6 hPa 0,0 l/m 10,1 km/h (2 Bft) W 273 0 min 0,000 mm 0,0 UV-I 116 W/m 1,0 C 0,1 C 17,7 km/h (3 Bft) 98,04 %
05.02.2016 10:15 3,2 C 85 % 1029,6 hPa 0,0 l/m 5,2 km/h (1 Bft) SW 231 0 min 0,000 mm 0,0 UV-I 78 W/m 0,9 C 3,2 C 16,1 km/h (3 Bft) 94,70 %
05.02.2016 10:20 3,2 C 85 % 1029,6 hPa 0,0 l/m 5,2 km/h (1 Bft) W 263 0 min 0,000 mm 0,0 UV-I 59 W/m 0,9 C 3,2 C 12,9 km/h (3 Bft) 96,69 %
05.02.2016 10:25 3,2 C 85 % 1029,5 hPa 0,0 l/m 5,1 km/h (1 Bft) W 261 0 min 0,000 mm 0,0 UV-I 60 W/m 0,9 C 3,2 C 11,3 km/h (2 Bft) 97,46 %
05.02.2016 10:30 3,1 C 84 % 1029,5 hPa 0,0 l/m 3,5 km/h (1 Bft) W-NW 282 0 min 0,000 mm 0,1 UV-I 54 W/m 0,7 C 3,1 C 6,4 km/h (2 Bft) 99,00 %
05.02.2016 10:35 3,1 C 83 % 1029,6 hPa 0,0 l/m 5,2 km/h (1 Bft) W-SW 252 0 min 0,000 mm 0,1 UV-I 65 W/m 0,5 C 3,1 C 11,3 km/h (2 Bft) 98,56 %
05.02.2016 10:40 3,2 C 84 % 1029,7 hPa 0,0 l/m 4,6 km/h (1 Bft) W 268 0 min 0,000 mm 0,0 UV-I 80 W/m 0,8 C 3,2 C 9,7 km/h (2 Bft) 98,31 %
05.02.2016 10:45 3,2 C 84 % 1029,7 hPa 0,0 l/m 4,6 km/h (1 Bft) W 263 0 min 0,000 mm 0,0 UV-I 57 W/m 0,8 C 3,2 C 8,0 km/h (2 Bft) 100,00 %
05.02.2016 10:50 3,2 C 84 % 1029,7 hPa 0,0 l/m 5,6 km/h (1 Bft) SW 225 0 min 0,000 mm 0,0 UV-I 90 W/m 0,8 C 3,2 C 11,3 km/h (2 Bft) 99,06 %
05.02.2016 10:55 3,2 C 83 % 1029,7 hPa 0,0 l/m 6,1 km/h (2 Bft) W 261 0 min 0,000 mm 0,0 UV-I 81 W/m 0,6 C 3,2 C 9,7 km/h (2 Bft) 100,00 %
05.02.2016 11:05 3,4 C 83 % 1029,7 hPa 0,0 l/m 4,5 km/h (1 Bft) W 264 0 min 0,050 mm 0,0 UV-I 114 W/m 0,8 C 3,4 C 8,0 km/h (2 Bft) 99,10 %
05.02.2016 11:10 3,6 C 81 % 1029,5 hPa 0,0 l/m 8,1 km/h (2 Bft) W 260 0 min 0,000 mm 0,6 UV-I 195 W/m 0,7 C 2,0 C 17,7 km/h (3 Bft) 98,26 %
05.02.2016 11:15 3,9 C 79 % 1029,5 hPa 0,0 l/m 11,4 km/h (2 Bft) SW 226 5 min 0,000 mm 1,0 UV-I 413 W/m 0,6 C -0,1 C 20,9 km/h (4 Bft) 98,33 %
05.02.2016 11:20 4,2 C 78 % 1029,5 hPa 0,0 l/m 14,3 km/h (3 Bft) SW 236 5 min 0,000 mm 1,0 UV-I 386 W/m 0,7 C -1,5 C 20,9 km/h (4 Bft) 99,03 %
05.02.2016 11:25 4,3 C 76 % 1029,5 hPa 0,0 l/m 11,4 km/h (2 Bft) SW 236 5 min 0,000 mm 1,0 UV-I 353 W/m 0,5 C 0,3 C 17,7 km/h (3 Bft) 100,00 %
05.02.2016 11:30 4,7 C 77 % 1029,4 hPa 0,0 l/m 10,9 km/h (2 Bft) W 261 5 min 0,000 mm 1,2 UV-I 555 W/m 1,0 C 1,1 C 20,9 km/h (4 Bft) 99,24 %
05.02.2016 11:35 5,0 C 73 % 1029,3 hPa 0,0 l/m 11,8 km/h (2 Bft) W-SW 241 5 min 0,000 mm 1,2 UV-I 537 W/m 0,6 C 0,9 C 24,1 km/h (4 Bft) 99,13 %
05.02.2016 11:40 4,7 C 73 % 1029,3 hPa 0,0 l/m 10,8 km/h (2 Bft) W-SW 250 5 min 0,000 mm 1,0 UV-I 316 W/m 0,3 C 1,2 C 17,7 km/h (3 Bft) 99,13 %
05.02.2016 11:45 4,3 C 75 % 1029,3 hPa 0,0 l/m 14,1 km/h (3 Bft) W-SW 238 0 min 0,000 mm 0,9 UV-I 232 W/m 0,3 C -1,3 C 19,3 km/h (3 Bft) 100,00 %
05.02.2016 11:50 4,2 C 74 % 1029,4 hPa 0,0 l/m 14,3 km/h (3 Bft) W-SW 238 0 min 0,000 mm 0,9 UV-I 209 W/m -0,0 C -1,5 C 22,5 km/h (4 Bft) 96,69 %
05.02.2016 11:55 3,9 C 75 % 1029,3 hPa 0,0 l/m 13,8 km/h (3 Bft) W 261 0 min 0,000 mm 0,9 UV-I 205 W/m -0,1 C -1,6 C 22,5 km/h (4 Bft) 97,44 %
05.02.2016 12:00 4,0 C 77 % 1029,3 hPa 0,0 l/m 12,3 km/h (3 Bft) W-SW 244 0 min 0,153 mm 0,9 UV-I 207 W/m 0,3 C -0,6 C 20,9 km/h (4 Bft) 95,41 %
05.02.2016 12:05 4,1 C 76 % 1029,3 hPa 0,0 l/m 13,5 km/h (3 Bft) W 261 0 min 0,000 mm 0,8 UV-I 204 W/m 0,3 C -1,2 C 22,5 km/h (4 Bft) 95,76 %
05.02.2016 12:10 4,1 C 76 % 1029,2 hPa 0,0 l/m 11,6 km/h (2 Bft) W-SW 246 0 min 0,000 mm 0,9 UV-I 214 W/m 0,3 C -0,0 C 20,9 km/h (4 Bft) 97,50 %
05.02.2016 12:15 4,2 C 77 % 1029,1 hPa 0,0 l/m 13,5 km/h (3 Bft) W-SW 254 0 min 0,000 mm 1,0 UV-I 228 W/m 0,5 C -1,1 C 22,5 km/h (4 Bft) 97,25 %
05.02.2016 12:20 4,2 C 77 % 1029,0 hPa 0,0 l/m 11,5 km/h (2 Bft) W-SW 254 0 min 0,000 mm 0,9 UV-I 211 W/m 0,5 C 0,2 C 20,9 km/h (4 Bft) 100,00 %
05.02.2016 12:25 4,2 C 77 % 1029,0 hPa 0,0 l/m 11,6 km/h (2 Bft) W-NW 301 0 min 0,000 mm 0,9 UV-I 202 W/m 0,5 C 0,1 C 17,7 km/h (3 Bft) 98,15 %
05.02.2016 12:30 4,1 C 78 % 1028,9 hPa 0,0 l/m 11,1 km/h (2 Bft) W-SW 250 0 min 0,000 mm 0,8 UV-I 194 W/m 0,6 C 0,3 C 19,3 km/h (3 Bft) 97,52 %
05.02.2016 12:35 4,1 C 79 % 1028,9 hPa 0,0 l/m 11,8 km/h (2 Bft) W-SW 252 0 min 0,000 mm 0,8 UV-I 179 W/m 0,8 C -0,2 C 22,5 km/h (4 Bft) 100,00 %
05.02.2016 12:40 4,2 C 77 % 1028,9 hPa 0,0 l/m 12,3 km/h (3 Bft) W 275 0 min 0,000 mm 0,6 UV-I 146 W/m 0,5 C -0,4 C 19,3 km/h (3 Bft) 100,00 %
05.02.2016 12:45 4,2 C 75 % 1028,9 hPa 0,0 l/m 12,7 km/h (3 Bft) W-SW 250 0 min 0,000 mm 0,6 UV-I 139 W/m 0,2 C -0,6 C 22,5 km/h (4 Bft) 100,00 %
05.02.2016 12:50 4,2 C 76 % 1028,8 hPa 0,0 l/m 10,3 km/h (2 Bft) W-SW 249 0 min 0,000 mm 0,6 UV-I 125 W/m 0,4 C 1,0 C 19,3 km/h (3 Bft) 100,00 %
05.02.2016 12:55 4,2 C 77 % 1028,8 hPa 0,0 l/m 12,4 km/h (3 Bft) W-SW 240 0 min 0,000 mm 0,5 UV-I 109 W/m 0,5 C -0,4 C 19,3 km/h (3 Bft) 99,17 %
05.02.2016 13:00 4,1 C 75 % 1028,7 hPa 0,0 l/m 12,7 km/h (3 Bft) W-SW 238 0 min 0,101 mm 0,1 UV-I 100 W/m 0,1 C -0,7 C 22,5 km/h (4 Bft) 99,13 %
05.02.2016 13:05 4,1 C 77 % 1028,7 hPa 0,0 l/m 12,7 km/h (3 Bft) W-SW 254 0 min 0,000 mm 0,0 UV-I 87 W/m 0,4 C -0,7 C 17,7 km/h (3 Bft) 100,00 %
05.02.2016 13:10 4,1 C 77 % 1028,7 hPa 0,0 l/m 12,3 km/h (3 Bft) W-SW 244 0 min 0,000 mm 0,0 UV-I 83 W/m 0,4 C -0,5 C 17,7 km/h (3 Bft) 99,08 %
05.02.2016 13:15 4,1 C 77 % 1028,6 hPa 0,0 l/m 11,3 km/h (2 Bft) W-SW 239 0 min 0,000 mm 0,2 UV-I 106 W/m 0,4 C 0,2 C 16,1 km/h (3 Bft) 100,00 %
05.02.2016 13:20 4,1 C 77 % 1028,5 hPa 0,0 l/m 11,3 km/h (2 Bft) W-SW 249 0 min 0,000 mm 0,6 UV-I 144 W/m 0,4 C 0,2 C 17,7 km/h (3 Bft) 100,00 %
05.02.2016 13:25 4,2 C 78 % 1028,5 hPa 0,0 l/m 9,1 km/h (2 Bft) W-SW 247 0 min 0,000 mm 0,6 UV-I 141 W/m 0,7 C 1,9 C 14,5 km/h (3 Bft) 98,21 %
05.02.2016 13:30 4,2 C 77 % 1028,5 hPa 0,0 l/m 9,9 km/h (2 Bft) W-SW 248 0 min 0,000 mm 0,2 UV-I 116 W/m 0,5 C 1,3 C 20,9 km/h (4 Bft) 99,19 %
05.02.2016 13:35 4,2 C 78 % 1028,5 hPa 0,0 l/m 8,2 km/h (2 Bft) W-SW 248 0 min 0,000 mm 0,0 UV-I 103 W/m 0,7 C 2,6 C 17,7 km/h (3 Bft) 100,00 %
05.02.2016 13:40 4,1 C 78 % 1028,5 hPa 0,0 l/m 8,7 km/h (2 Bft) W-SW 257 0 min 0,000 mm 0,0 UV-I 96 W/m 0,6 C 2,1 C 16,1 km/h (3 Bft) 99,26 %
05.02.2016 13:45 4,0 C 79 % 1028,4 hPa 0,0 l/m 7,9 km/h (2 Bft) W 278 0 min 0,000 mm 0,0 UV-I 96 W/m 0,7 C 2,6 C 14,5 km/h (3 Bft) 97,41 %
05.02.2016 13:50 4,0 C 78 % 1028,4 hPa 0,0 l/m 11,6 km/h (2 Bft) W 266 0 min 0,000 mm 0,0 UV-I 97 W/m 0,5 C -0,1 C 16,1 km/h (3 Bft) 96,69 %
05.02.2016 13:55 3,9 C 79 % 1028,2 hPa 0,0 l/m 10,2 km/h (2 Bft) W-SW 257 0 min 0,000 mm 0,0 UV-I 83 W/m 0,6 C 0,7 C 17,7 km/h (3 Bft) 97,44 %
05.02.2016 14:00 3,8 C 83 % 1028,3 hPa 0,0 l/m 9,9 km/h (2 Bft) W-SW 242 0 min 0,051 mm 0,0 UV-I 92 W/m 1,2 C 0,8 C 17,7 km/h (3 Bft) 98,31 %
05.02.2016 14:05 3,7 C 85 % 1028,1 hPa 0,0 l/m 11,3 km/h (2 Bft) S 184 0 min 0,000 mm 0,0 UV-I 93 W/m 1,4 C -0,3 C 20,9 km/h (4 Bft) 97,32 %
05.02.2016 14:10 3,6 C 86 % 1028,1 hPa 0,0 l/m 8,8 km/h (2 Bft) W-SW 241 0 min 0,000 mm 0,0 UV-I 83 W/m 1,5 C 1,5 C 16,1 km/h (3 Bft) 96,58 %
05.02.2016 14:15 3,6 C 85 % 1028,0 hPa 0,0 l/m 12,9 km/h (3 Bft) W-SW 240 0 min 0,000 mm 0,0 UV-I 83 W/m 1,3 C -1,4 C 20,9 km/h (4 Bft) 97,46 %
05.02.2016 14:20 3,6 C 85 % 1028,0 hPa 0,0 l/m 12,2 km/h (2 Bft) SW 217 0 min 0,000 mm 0,0 UV-I 88 W/m 1,3 C -1,0 C 20,9 km/h (4 Bft) 99,11 %
05.02.2016 14:25 3,7 C 86 % 1028,0 hPa 0,0 l/m 8,4 km/h (2 Bft) W-SW 248 0 min 0,000 mm 0,0 UV-I 98 W/m 1,6 C 1,9 C 14,5 km/h (3 Bft) 99,17 %
05.02.2016 14:30 3,7 C 85 % 1028,0 hPa 0,0 l/m 12,4 km/h (3 Bft) W-SW 258 0 min 0,000 mm 0,0 UV-I 112 W/m 1,4 C -1,0 C 19,3 km/h (3 Bft) 100,00 %
05.02.2016 14:35 3,8 C 85 % 1028,1 hPa 0,0 l/m 9,1 km/h (2 Bft) SW 230 0 min 0,000 mm 0,0 UV-I 117 W/m 1,5 C 1,4 C 17,7 km/h (3 Bft) 98,26 %
05.02.2016 14:40 3,7 C 84 % 1028,1 hPa 0,0 l/m 9,9 km/h (2 Bft) W-SW 254 0 min 0,000 mm 0,0 UV-I 97 W/m 1,3 C 0,7 C 16,1 km/h (3 Bft) 99,19 %
05.02.2016 14:45 3,7 C 85 % 1028,0 hPa 0,0 l/m 10,5 km/h (2 Bft) W-SW 251 0 min 0,000 mm 0,0 UV-I 90 W/m 1,4 C 0,3 C 16,1 km/h (3 Bft) 100,00 %
05.02.2016 14:50 3,8 C 86 % 1028,1 hPa 0,0 l/m 6,6 km/h (2 Bft) SW 236 0 min 0,000 mm 0,0 UV-I 90 W/m 1,7 C 3,6 C 11,3 km/h (2 Bft) 99,15 %
05.02.2016 14:55 3,8 C 85 % 1028,1 hPa 0,0 l/m 10,6 km/h (2 Bft) W-SW 249 0 min 0,000 mm 0,0 UV-I 91 W/m 1,5 C 0,3 C 17,7 km/h (3 Bft) 99,15 %
05.02.2016 15:00 3,7 C 86 % 1028,0 hPa 0,0 l/m 8,1 km/h (2 Bft) W-SW 242 0 min 0,051 mm 0,0 UV-I 83 W/m 1,6 C 2,2 C 12,9 km/h (3 Bft) 100,00 %
05.02.2016 15:05 3,8 C 86 % 1027,9 hPa 0,0 l/m 5,8 km/h (2 Bft) W-SW 257 0 min 0,000 mm 0,0 UV-I 86 W/m 1,7 C 3,8 C 11,3 km/h (2 Bft) 100,00 %
05.02.2016 15:10 3,8 C 86 % 1028,0 hPa 0,0 l/m 6,9 km/h (2 Bft) SW 226 0 min 0,000 mm 0,0 UV-I 88 W/m 1,7 C 3,3 C 14,5 km/h (3 Bft) 100,00 %
05.02.2016 15:15 3,9 C 86 % 1027,9 hPa 0,0 l/m 10,0 km/h (2 Bft) W-SW 257 0 min 0,000 mm 0,0 UV-I 89 W/m 1,8 C 0,9 C 16,1 km/h (3 Bft) 98,31 %
05.02.2016 15:20 3,9 C 86 % 1027,9 hPa 0,0 l/m 8,4 km/h (2 Bft) SW 229 0 min 0,000 mm 0,0 UV-I 92 W/m 1,8 C 2,1 C 12,9 km/h (3 Bft) 98,29 %
05.02.2016 15:25 3,9 C 86 % 1027,8 hPa 0,0 l/m 9,2 km/h (2 Bft) W-SW 240 0 min 0,000 mm 0,0 UV-I 98 W/m 1,8 C 1,5 C 16,1 km/h (3 Bft) 99,17 %
05.02.2016 15:30 4,0 C 86 % 1027,8 hPa 0,0 l/m 7,6 km/h (2 Bft) W-NW 284 0 min 0,000 mm 0,0 UV-I 89 W/m 1,9 C 2,9 C 12,9 km/h (3 Bft) 98,29 %
05.02.2016 15:35 4,0 C 85 % 1027,8 hPa 0,0 l/m 9,2 km/h (2 Bft) W-SW 254 0 min 0,000 mm 0,0 UV-I 82 W/m 1,7 C 1,6 C 14,5 km/h (3 Bft) 100,00 %
05.02.2016 15:40 4,1 C 86 % 1027,7 hPa 0,0 l/m 7,6 km/h (2 Bft) SW 220 0 min 0,000 mm 0,0 UV-I 85 W/m 2,0 C 3,0 C 12,9 km/h (3 Bft) 99,15 %
05.02.2016 15:45 4,2 C 86 % 1027,6 hPa 0,0 l/m 9,0 km/h (2 Bft) SW 236 0 min 0,000 mm 0,0 UV-I 74 W/m 2,1 C 1,9 C 16,1 km/h (3 Bft) 96,58 %
05.02.2016 15:50 4,2 C 86 % 1027,5 hPa 0,0 l/m 8,7 km/h (2 Bft) W 264 0 min 0,000 mm 0,0 UV-I 69 W/m 2,1 C 2,2 C 14,5 km/h (3 Bft) 96,43 %
05.02.2016 15:55 4,1 C 86 % 1027,5 hPa 0,0 l/m 8,7 km/h (2 Bft) W-SW 237 0 min 0,000 mm 0,0 UV-I 63 W/m 2,0 C 2,1 C 14,5 km/h (3 Bft) 98,31 %
05.02.2016 16:00 4,2 C 86 % 1027,4 hPa 0,0 l/m 9,1 km/h (2 Bft) W-SW 243 0 min 0,051 mm 0,0 UV-I 55 W/m 2,1 C 1,9 C 14,5 km/h (3 Bft) 95,93 %
05.02.2016 16:05 4,2 C 86 % 1027,4 hPa 0,0 l/m 7,7 km/h (2 Bft) W-SW 244 0 min 0,000 mm 0,0 UV-I 54 W/m 2,1 C 3,0 C 12,9 km/h (3 Bft) 97,25 %
05.02.2016 16:10 4,2 C 86 % 1027,4 hPa 0,0 l/m 7,6 km/h (2 Bft) SW 234 0 min 0,000 mm 0,0 UV-I 59 W/m 2,1 C 3,1 C 14,5 km/h (3 Bft) 96,67 %
05.02.2016 16:15 4,2 C 86 % 1027,3 hPa 0,0 l/m 4,6 km/h (1 Bft) SW 232 0 min 0,000 mm 0,0 UV-I 61 W/m 2,1 C 4,2 C 11,3 km/h (2 Bft) 98,35 %
05.02.2016 16:20 4,2 C 87 % 1027,3 hPa 0,0 l/m 4,4 km/h (1 Bft) W-SW 247 0 min 0,000 mm 0,0 UV-I 52 W/m 2,2 C 4,2 C 8,0 km/h (2 Bft) 99,17 %
05.02.2016 16:25 4,2 C 87 % 1027,3 hPa 0,0 l/m 3,4 km/h (1 Bft) W 281 0 min 0,000 mm 0,0 UV-I 40 W/m 2,2 C 4,2 C 6,4 km/h (2 Bft) 98,15 %
05.02.2016 16:30 4,1 C 87 % 1027,3 hPa 0,0 l/m 1,4 km/h (1 Bft) W 273 0 min 0,000 mm 0,0 UV-I 32 W/m 2,1 C 4,1 C 3,2 km/h (1 Bft) 98,43 %
05.02.2016 16:35 4,0 C 88 % 1027,4 hPa 0,0 l/m 3,2 km/h (1 Bft) W 272 0 min 0,000 mm 0,0 UV-I 28 W/m 2,2 C 4,0 C 4,8 km/h (1 Bft) 99,00 %
05.02.2016 16:40 3,9 C 88 % 1027,4 hPa 0,0 l/m 2,5 km/h (1 Bft) W 279 0 min 0,000 mm 0,0 UV-I 30 W/m 2,1 C 3,9 C 4,8 km/h (1 Bft) 98,48 %
05.02.2016 16:45 3,9 C 88 % 1027,4 hPa 0,0 l/m 1,3 km/h (1 Bft) W 281 0 min 0,000 mm 0,0 UV-I 25 W/m 2,1 C 3,9 C 4,8 km/h (1 Bft) 100,00 %
05.02.2016 16:50 3,9 C 89 % 1027,4 hPa 0,0 l/m 0,4 km/h (0 Bft) W 281 0 min 0,000 mm 0,0 UV-I 16 W/m 2,3 C 3,9 C 1,6 km/h (1 Bft) 100,00 %
05.02.2016 16:55 3,9 C 89 % 1027,4 hPa 0,0 l/m 0,9 km/h (0 Bft) W 281 0 min 0,000 mm 0,0 UV-I 8 W/m 2,3 C 3,9 C 3,2 km/h (1 Bft) 99,08 %
05.02.2016 17:00 3,8 C 89 % 1027,4 hPa 0,0 l/m 0,7 km/h (0 Bft) W-NW 283 0 min 0,025 mm 0,0 UV-I 6 W/m 2,2 C 3,8 C 3,2 km/h (1 Bft) 100,00 %
05.02.2016 17:05 3,8 C 90 % 1027,5 hPa 0,0 l/m 0,2 km/h (0 Bft) W-NW 283 0 min 0,000 mm 0,0 UV-I 2 W/m 2,3 C 3,8 C 1,6 km/h (1 Bft) 100,00 %
05.02.2016 17:10 3,8 C 89 % 1027,5 hPa 0,0 l/m 0,6 km/h (0 Bft) W-NW 283 0 min 0,000 mm 0,0 UV-I 0 W/m 2,2 C 3,8 C 3,2 km/h (1 Bft) 98,31 %
05.02.2016 17:15 3,8 C 89 % 1027,6 hPa 0,0 l/m 0,4 km/h (0 Bft) W-NW 283 0 min 0,000 mm 0,0 UV-I 0 W/m 2,2 C 3,8 C 3,2 km/h (1 Bft) 100,00 %
05.02.2016 17:20 3,8 C 89 % 1027,6 hPa 0,0 l/m 0,1 km/h (0 Bft) W-NW 283 0 min 0,000 mm 0,0 UV-I 0 W/m 2,2 C 3,8 C 1,6 km/h (1 Bft) 99,19 %
05.02.2016 17:25 3,8 C 89 % 1027,6 hPa 0,0 l/m 0,0 km/h (0 Bft) W-NW 283 0 min 0,000 mm 0,0 UV-I 0 W/m 2,2 C 3,8 C 1,6 km/h (1 Bft) 100,00 %
05.02.2016 17:30 3,7 C 89 % 1027,6 hPa 0,0 l/m 0,1 km/h (0 Bft) W-NW 283 0 min 0,000 mm 0,0 UV-I 0 W/m 2,1 C 3,7 C 1,6 km/h (1 Bft) 100,00 %
05.02.2016 17:35 3,7 C 90 % 1027,6 hPa 0,0 l/m 1,3 km/h (1 Bft) W-NW 283 0 min 0,000 mm 0,0 UV-I 0 W/m 2,2 C 3,7 C 3,2 km/h (1 Bft) 99,13 %
05.02.2016 17:40 3,8 C 89 % 1027,6 hPa 0,0 l/m 2,3 km/h (1 Bft) W-NW 297 0 min 0,000 mm 0,0 UV-I 0 W/m 2,2 C 3,8 C 3,2 km/h (1 Bft) 99,17 %
05.02.2016 17:45 3,8 C 88 % 1027,6 hPa 0,0 l/m 2,4 km/h (1 Bft) NW 318 0 min 0,000 mm 0,0 UV-I 0 W/m 2,0 C 3,8 C 3,2 km/h (1 Bft) 98,37 %
05.02.2016 17:50 3,8 C 88 % 1027,6 hPa 0,0 l/m 2,5 km/h (1 Bft) N-NW 327 0 min 0,000 mm 0,0 UV-I 0 W/m 2,0 C 3,8 C 3,2 km/h (1 Bft) 97,17 %
05.02.2016 17:55 3,8 C 89 % 1027,6 hPa 0,0 l/m 1,8 km/h (1 Bft) N-NW 327 0 min 0,000 mm 0,0 UV-I 0 W/m 2,2 C 3,8 C 3,2 km/h (1 Bft) 96,61 %
05.02.2016 18:00 3,6 C 91 % 1027,6 hPa 0,0 l/m 2,2 km/h (1 Bft) N-NW 327 0 min 0,000 mm 0,0 UV-I 0 W/m 2,3 C 3,6 C 4,8 km/h (1 Bft) 97,62 %
05.02.2016 18:05 3,6 C 90 % 1027,6 hPa 0,0 l/m 1,2 km/h (1 Bft) N-NW 327 0 min 0,000 mm 0,0 UV-I 0 W/m 2,1 C 3,6 C 3,2 km/h (1 Bft) 96,33 %
05.02.2016 18:10 3,4 C 91 % 1027,7 hPa 0,0 l/m 1,5 km/h (1 Bft) N-NW 327 0 min 0,000 mm 0,0 UV-I 0 W/m 2,1 C 3,4 C 3,2 km/h (1 Bft) 97,56 %
05.02.2016 18:15 3,4 C 91 % 1027,7 hPa 0,0 l/m 0,2 km/h (0 Bft) N-NW 327 0 min 0,000 mm 0,0 UV-I 0 W/m 2,1 C 3,4 C 1,6 km/h (1 Bft) 96,33 %
05.02.2016 18:20 3,5 C 92 % 1027,8 hPa 0,0 l/m 0,1 km/h (0 Bft) N-NW 327 0 min 0,000 mm 0,0 UV-I 0 W/m 2,3 C 3,5 C 1,6 km/h (1 Bft) 97,52 %
05.02.2016 18:25 3,5 C 92 % 1027,8 hPa 0,0 l/m 0,0 km/h (0 Bft) N-NW 327 0 min 0,000 mm 0,0 UV-I 0 W/m 2,3 C 3,5 C 0,0 km/h (0 Bft) 99,17 %
05.02.2016 18:30 3,5 C 91 % 1027,8 hPa 0,0 l/m 0,1 km/h (0 Bft) N-NW 327 0 min 0,000 mm 0,0 UV-I 0 W/m 2,2 C 3,5 C 1,6 km/h (1 Bft) 100,00 %
05.02.2016 18:35 3,5 C 91 % 1027,8 hPa 0,0 l/m 0,6 km/h (0 Bft) N-NW 327 0 min 0,000 mm 0,0 UV-I 0 W/m 2,2 C 3,5 C 3,2 km/h (1 Bft) 99,11 %
05.02.2016 18:40 3,4 C 92 % 1027,8 hPa 0,0 l/m 0,0 km/h (0 Bft) N-NW 327 0 min 0,000 mm 0,0 UV-I 0 W/m 2,2 C 3,4 C 1,6 km/h (1 Bft) 100,00 %
05.02.2016 18:45 3,4 C 92 % 1027,9 hPa 0,0 l/m 0,4 km/h (0 Bft) N-NW 327 0 min 0,000 mm 0,0 UV-I 0 W/m 2,2 C 3,4 C 1,6 km/h (1 Bft) 100,00 %
05.02.2016 18:50 3,4 C 92 % 1027,9 hPa 0,0 l/m 0,3 km/h (0 Bft) N-NW 327 0 min 0,000 mm 0,0 UV-I 0 W/m 2,2 C 3,4 C 1,6 km/h (1 Bft) 99,21 %
05.02.2016 18:55 3,4 C 92 % 1027,9 hPa 0,0 l/m 0,0 km/h (0 Bft) N-NW 327 0 min 0,000 mm 0,0 UV-I 0 W/m 2,2 C 3,4 C 0,0 km/h (0 Bft) 100,00 %
05.02.2016 19:00 3,4 C 92 % 1028,0 hPa 0,0 l/m 0,0 km/h (0 Bft) N-NW 327 0 min 0,000 mm 0,0 UV-I 0 W/m 2,2 C 3,4 C 0,0 km/h (0 Bft) 100,00 %
05.02.2016 19:05 3,4 C 92 % 1028,0 hPa 0,0 l/m 0,0 km/h (0 Bft) N-NW 327 0 min 0,000 mm 0,0 UV-I 0 W/m 2,2 C 3,4 C 0,0 km/h (0 Bft) 100,00 %
05.02.2016 19:10 3,4 C 93 % 1028,0 hPa 0,0 l/m 0,0 km/h (0 Bft) N-NW 327 0 min 0,000 mm 0,0 UV-I 0 W/m 2,4 C 3,4 C 0,0 km/h (0 Bft) 99,11 %
05.02.2016 19:15 3,3 C 93 % 1028,0 hPa 0,0 l/m 0,0 km/h (0 Bft) N-NW 327 0 min 0,000 mm 0,0 UV-I 0 W/m 2,3 C 3,3 C 0,0 km/h (0 Bft) 100,00 %
05.02.2016 19:20 3,3 C 92 % 1028,0 hPa 0,0 l/m 0,0 km/h (0 Bft) N-NW 327 0 min 0,000 mm 0,0 UV-I 0 W/m 2,1 C 3,3 C 0,0 km/h (0 Bft) 100,00 %
05.02.2016 19:30 3,3 C 93 % 1028,0 hPa 0,0 l/m 0,0 km/h (0 Bft) N-NW 327 0 min 0,000 mm 0,0 UV-I 0 W/m 2,3 C 3,3 C 0,0 km/h (0 Bft) 100,00 %
05.02.2016 19:35 3,3 C 93 % 1028,0 hPa 0,0 l/m 0,2 km/h (0 Bft) N-NW 327 0 min 0,000 mm 0,0 UV-I 0 W/m 2,3 C 3,3 C 1,6 km/h (1 Bft) 100,00 %
05.02.2016 19:40 3,4 C 92 % 1028,0 hPa 0,0 l/m 1,4 km/h (1 Bft) N-NW 327 0 min 0,000 mm 0,0 UV-I 0 W/m 2,2 C 3,4 C 3,2 km/h (1 Bft) 100,00 %
05.02.2016 19:45 3,4 C 92 % 1027,9 hPa 0,0 l/m 0,9 km/h (0 Bft) N-NW 327 0 min 0,000 mm 0,0 UV-I 0 W/m 2,2 C 3,4 C 1,6 km/h (1 Bft) 98,20 %
05.02.2016 19:50 3,3 C 93 % 1027,9 hPa 0,0 l/m 0,9 km/h (0 Bft) N-NW 340 0 min 0,000 mm 0,0 UV-I 0 W/m 2,3 C 3,3 C 3,2 km/h (1 Bft) 100,00 %
05.02.2016 19:55 3,3 C 93 % 1027,8 hPa 0,0 l/m 1,0 km/h (0 Bft) N 355 0 min 0,000 mm 0,0 UV-I 0 W/m 2,3 C 3,3 C 3,2 km/h (1 Bft) 96,61 %
05.02.2016 20:00 3,4 C 92 % 1027,8 hPa 0,0 l/m 3,1 km/h (1 Bft) SO 144 0 min 0,000 mm 0,0 UV-I 0 W/m 2,2 C 3,4 C 8,0 km/h (2 Bft) 97,37 %
05.02.2016 20:05 3,5 C 92 % 1027,7 hPa 0,0 l/m 0,3 km/h (0 Bft) SO 144 0 min 0,000 mm 0,0 UV-I 0 W/m 2,3 C 3,5 C 3,2 km/h (1 Bft) 97,39 %
05.02.2016 20:10 3,3 C 93 % 1027,7 hPa 0,0 l/m 0,0 km/h (0 Bft) SO 144 0 min 0,000 mm 0,0 UV-I 0 W/m 2,3 C 3,3 C 0,0 km/h (0 Bft) 95,76 %
05.02.2016 20:15 3,3 C 93 % 1027,7 hPa 0,0 l/m 1,3 km/h (1 Bft) SO 144 0 min 0,000 mm 0,0 UV-I 0 W/m 2,3 C 3,3 C 3,2 km/h (1 Bft) 98,25 %
05.02.2016 20:20 3,3 C 93 % 1027,6 hPa 0,0 l/m 2,2 km/h (1 Bft) SO 144 0 min 0,000 mm 0,0 UV-I 0 W/m 2,3 C 3,3 C 3,2 km/h (1 Bft) 97,52 %
05.02.2016 20:25 3,2 C 93 % 1027,6 hPa 0,0 l/m 1,0 km/h (0 Bft) SO 144 0 min 0,000 mm 0,0 UV-I 0 W/m 2,2 C 3,2 C 1,6 km/h (1 Bft) 97,44 %
05.02.2016 20:30 3,3 C 93 % 1027,6 hPa 0,0 l/m 0,4 km/h (0 Bft) SO 144 0 min 0,000 mm 0,0 UV-I 0 W/m 2,3 C 3,3 C 1,6 km/h (1 Bft) 98,21 %
05.02.2016 20:35 3,2 C 94 % 1027,6 hPa 0,0 l/m 0,8 km/h (0 Bft) SO 144 0 min 0,000 mm 0,0 UV-I 0 W/m 2,3 C 3,2 C 1,6 km/h (1 Bft) 99,21 %
05.02.2016 20:40 3,2 C 94 % 1027,6 hPa 0,0 l/m 0,0 km/h (0 Bft) SO 144 0 min 0,000 mm 0,0 UV-I 0 W/m 2,3 C 3,2 C 0,0 km/h (0 Bft) 97,22 %
05.02.2016 20:45 3,2 C 94 % 1027,7 hPa 0,0 l/m 0,8 km/h (0 Bft) SO 146 0 min 0,000 mm 0,0 UV-I 0 W/m 2,3 C 3,2 C 3,2 km/h (1 Bft) 100,00 %
05.02.2016 20:50 3,0 C 94 % 1027,6 hPa 0,0 l/m 0,6 km/h (0 Bft) SO 146 0 min 0,000 mm 0,0 UV-I 0 W/m 2,1 C 3,0 C 1,6 km/h (1 Bft) 100,00 %
05.02.2016 20:55 2,9 C 94 % 1027,6 hPa 0,0 l/m 0,4 km/h (0 Bft) SO 146 0 min 0,000 mm 0,0 UV-I 0 W/m 2,0 C 2,9 C 1,6 km/h (1 Bft) 99,19 %
05.02.2016 21:00 2,9 C 94 % 1027,6 hPa 0,0 l/m 0,0 km/h (0 Bft) SO 146 0 min 0,000 mm 0,0 UV-I 0 W/m 2,0 C 2,9 C 1,6 km/h (1 Bft) 100,00 %
05.02.2016 21:05 2,9 C 95 % 1027,5 hPa 0,0 l/m 0,0 km/h (0 Bft) SO 146 0 min 0,000 mm 0,0 UV-I 0 W/m 2,2 C 2,9 C 1,6 km/h (1 Bft) 99,12 %
05.02.2016 21:10 2,8 C 95 % 1027,4 hPa 0,0 l/m 0,4 km/h (0 Bft) SO 146 0 min 0,000 mm 0,0 UV-I 0 W/m 2,1 C 2,8 C 1,6 km/h (1 Bft) 99,17 %
05.02.2016 21:15 2,7 C 94 % 1027,5 hPa 0,0 l/m 0,0 km/h (0 Bft) SO 146 0 min 0,000 mm 0,0 UV-I 0 W/m 1,8 C 2,7 C 0,0 km/h (0 Bft) 100,00 %
05.02.2016 21:20 2,7 C 95 % 1027,5 hPa 0,0 l/m 0,1 km/h (0 Bft) SO 146 0 min 0,000 mm 0,0 UV-I 0 W/m 2,0 C 2,7 C 1,6 km/h (1 Bft) 100,00 %
05.02.2016 21:25 2,5 C 95 % 1027,6 hPa 0,0 l/m 0,8 km/h (0 Bft) SO 146 0 min 0,000 mm 0,0 UV-I 0 W/m 1,8 C 2,5 C 3,2 km/h (1 Bft) 100,00 %
05.02.2016 21:30 2,4 C 95 % 1027,6 hPa 0,0 l/m 0,5 km/h (0 Bft) SO 146 0 min 0,000 mm 0,0 UV-I 0 W/m 1,7 C 2,4 C 3,2 km/h (1 Bft) 99,19 %
05.02.2016 21:35 2,4 C 95 % 1027,5 hPa 0,0 l/m 0,0 km/h (0 Bft) SO 146 0 min 0,000 mm 0,0 UV-I 0 W/m 1,7 C 2,4 C 1,6 km/h (1 Bft) 100,00 %
05.02.2016 21:40 2,3 C 95 % 1027,5 hPa 0,0 l/m 1,3 km/h (1 Bft) SO 146 0 min 0,000 mm 0,0 UV-I 0 W/m 1,6 C 2,3 C 3,2 km/h (1 Bft) 100,00 %
05.02.2016 21:45 2,2 C 95 % 1027,5 hPa 0,0 l/m 1,9 km/h (1 Bft) SO 146 0 min 0,000 mm 0,0 UV-I 0 W/m 1,5 C 2,2 C 3,2 km/h (1 Bft) 100,00 %
05.02.2016 21:50 2,1 C 95 % 1027,5 hPa 0,0 l/m 1,6 km/h (1 Bft) SO 146 0 min 0,000 mm 0,0 UV-I 0 W/m 1,4 C 2,1 C 3,2 km/h (1 Bft) 99,08 %
05.02.2016 21:55 1,9 C 95 % 1027,4 hPa 0,0 l/m 3,1 km/h (1 Bft) SO 146 0 min 0,000 mm 0,0 UV-I 0 W/m 1,2 C 1,9 C 4,8 km/h (1 Bft) 99,21 %
05.02.2016 22:00 1,8 C 95 % 1027,4 hPa 0,0 l/m 3,2 km/h (1 Bft) SO 146 0 min 0,000 mm 0,0 UV-I 0 W/m 1,1 C 1,8 C 4,8 km/h (1 Bft) 97,37 %
05.02.2016 22:05 1,9 C 96 % 1027,3 hPa 0,0 l/m 1,2 km/h (1 Bft) SO 146 0 min 0,000 mm 0,0 UV-I 0 W/m 1,3 C 1,9 C 3,2 km/h (1 Bft) 96,33 %
05.02.2016 22:10 2,0 C 96 % 1027,2 hPa 0,0 l/m 0,9 km/h (0 Bft) SO 146 0 min 0,000 mm 0,0 UV-I 0 W/m 1,4 C 2,0 C 3,2 km/h (1 Bft) 97,62 %
05.02.2016 22:15 2,0 C 96 % 1027,2 hPa 0,0 l/m 1,5 km/h (1 Bft) O-NO 73 0 min 0,000 mm 0,0 UV-I 0 W/m 1,4 C 2,0 C 3,2 km/h (1 Bft) 98,11 %
05.02.2016 22:20 1,9 C 96 % 1027,1 hPa 0,0 l/m 1,7 km/h (1 Bft) O-NO 73 0 min 0,000 mm 0,0 UV-I 0 W/m 1,3 C 1,9 C 3,2 km/h (1 Bft) 97,64 %
05.02.2016 22:25 1,9 C 95 % 1027,1 hPa 0,0 l/m 0,7 km/h (0 Bft) O-NO 73 0 min 0,000 mm 0,0 UV-I 0 W/m 1,2 C 1,9 C 3,2 km/h (1 Bft) 96,69 %
05.02.2016 22:30 1,7 C 95 % 1027,0 hPa 0,0 l/m 0,3 km/h (0 Bft) O-NO 73 0 min 0,000 mm 0,0 UV-I 0 W/m 1,0 C 1,7 C 3,2 km/h (1 Bft) 97,32 %
05.02.2016 22:35 1,8 C 96 % 1027,0 hPa 0,0 l/m 1,2 km/h (1 Bft) O 98 0 min 0,000 mm 0,0 UV-I 0 W/m 1,2 C 1,8 C 3,2 km/h (1 Bft) 99,14 %
05.02.2016 22:40 1,8 C 96 % 1026,9 hPa 0,0 l/m 0,5 km/h (0 Bft) O 98 0 min 0,000 mm 0,0 UV-I 0 W/m 1,2 C 1,8 C 3,2 km/h (1 Bft) 100,00 %
05.02.2016 22:45 1,8 C 96 % 1027,0 hPa 0,0 l/m 1,0 km/h (0 Bft) O 98 0 min 0,000 mm 0,0 UV-I 0 W/m 1,2 C 1,8 C 3,2 km/h (1 Bft) 96,52 %
05.02.2016 22:50 1,8 C 96 % 1026,9 hPa 0,0 l/m 0,2 km/h (0 Bft) O 98 0 min 0,000 mm 0,0 UV-I 0 W/m 1,2 C 1,8 C 3,2 km/h (1 Bft) 98,45 %
05.02.2016 22:55 1,6 C 95 % 1026,9 hPa 0,0 l/m 0,2 km/h (0 Bft) O 98 0 min 0,000 mm 0,0 UV-I 0 W/m 0,9 C 1,6 C 1,6 km/h (1 Bft) 100,00 %
05.02.2016 23:00 1,3 C 95 % 1026,8 hPa 0,0 l/m 0,3 km/h (0 Bft) O 98 0 min 0,000 mm 0,0 UV-I 0 W/m 0,6 C 1,3 C 1,6 km/h (1 Bft) 98,35 %
05.02.2016 23:05 1,3 C 96 % 1026,8 hPa 0,0 l/m 1,8 km/h (1 Bft) O 98 0 min 0,000 mm 0,0 UV-I 0 W/m 0,7 C 1,3 C 3,2 km/h (1 Bft) 100,00 %
05.02.2016 23:10 1,2 C 96 % 1026,8 hPa 0,0 l/m 1,1 km/h (1 Bft) O 98 0 min 0,000 mm 0,0 UV-I 0 W/m 0,6 C 1,2 C 3,2 km/h (1 Bft) 95,97 %
05.02.2016 23:15 1,2 C 96 % 1026,7 hPa 0,0 l/m 0,2 km/h (0 Bft) O 98 0 min 0,000 mm 0,0 UV-I 0 W/m 0,6 C 1,2 C 1,6 km/h (1 Bft) 99,06 %
05.02.2016 23:20 1,2 C 96 % 1026,7 hPa 0,0 l/m 4,0 km/h (1 Bft) N-NO 28 0 min 0,000 mm 0,0 UV-I 0 W/m 0,6 C 1,2 C 6,4 km/h (2 Bft) 100,00 %
05.02.2016 23:25 1,2 C 96 % 1026,7 hPa 0,0 l/m 4,2 km/h (1 Bft) N-NO 28 0 min 0,000 mm 0,0 UV-I 0 W/m 0,6 C 1,2 C 6,4 km/h (2 Bft) 100,00 %
05.02.2016 23:30 1,1 C 96 % 1026,6 hPa 0,0 l/m 2,0 km/h (1 Bft) N-NO 28 0 min 0,000 mm 0,0 UV-I 0 W/m 0,5 C 1,1 C 3,2 km/h (1 Bft) 99,19 %
05.02.2016 23:35 0,8 C 96 % 1026,4 hPa 0,0 l/m 2,7 km/h (1 Bft) O-NO 75 0 min 0,000 mm 0,0 UV-I 0 W/m 0,2 C 0,8 C 4,8 km/h (1 Bft) 98,26 %
05.02.2016 23:40 0,8 C 96 % 1026,4 hPa 0,0 l/m 3,1 km/h (1 Bft) O-NO 75 0 min 0,000 mm 0,0 UV-I 0 W/m 0,2 C 0,8 C 4,8 km/h (1 Bft) 100,00 %
05.02.2016 23:45 1,1 C 97 % 1026,4 hPa 0,0 l/m 3,3 km/h (1 Bft) N-NO 32 0 min 0,000 mm 0,0 UV-I 0 W/m 0,7 C 1,1 C 4,8 km/h (1 Bft) 99,12 %
05.02.2016 23:50 1,3 C 97 % 1026,4 hPa 0,0 l/m 4,7 km/h (1 Bft) NO 49 0 min 0,000 mm 0,0 UV-I 0 W/m 0,9 C 1,3 C 6,4 km/h (2 Bft) 100,00 %
05.02.2016 23:55 1,4 C 97 % 1026,5 hPa 0,0 l/m 5,6 km/h (1 Bft) NO 51 0 min 0,000 mm 0,0 UV-I 0 W/m 1,0 C 1,4 C 8,0 km/h (2 Bft) 98,26 %
_ Min-Zeit 23:40 11:35 00:00 - 17:25 - - - - - - 11:55 04:35 18:25 04:15
Minimum _ 0,6 C 73 % 1021,2 hPa - 0,0 km/h (0 Bft) - - - - - - -0,1 C -5,3 C 0,0 km/h (0 Bft) 94,35 %
_ Max-Zeit 11:35 23:45 10:40 00:20 00:25 - - 09:20 12:00 11:30 11:30 19:10 16:15 00:10 00:15
Maximum _ 5,0 C 97 % 1029,7 hPa 0,2 l/m 16,5 km/h
W (3 Bft)
- - 5 min 0,153 mm 1,2 UV-I 555 W/m 2,4 C 4,2 C 25,7 km/h
W-SW (4 Bft)
100,00 %
Durchschnitt _ 2,8 C 89 % 1027,1 hPa #0,2 l/m 6,9 km/h (2 Bft) W-SW - #1:20 h #0,584 mm 0,7 UV-I 118 W/m 1,2 C 0,8 C 12,3 km/h (3 Bft) 98,64 %